AFR106 ULLI-LFBO

Flight info

Callsign AFR106
Flight time 3h 28m
Altitude 40000
Route TURAL1B TURAL DCT RONUS DCT PEROX Z715 ANELA N869 NINTU DCT PIMAK DCT TITVA DCT NARAK
Aircraft A359/H-SDE2E3GHIJ3J4J5LM1ORWXY/LB1D1

Departure

Time 2026-05-05 10:02
Airport Pulkovo Airport (ULLI)

Arrival

Time 2026-05-05 13:30
Airport Toulouse-Blagnac Airport (LFBO)
Time Latitude Longitude Altitude Speed Heading
2026-05-05 09:00 59.80305 30.26228 79 ft 0 kts 285°
2026-05-05 09:53 59.80305 30.26230 79 ft 1 kts 285°
2026-05-05 09:53 59.80301 30.26262 85 ft 3 kts 279°
2026-05-05 09:53 59.80298 30.26302 85 ft 3 kts 272°
2026-05-05 09:54 59.80298 30.26342 85 ft 3 kts 264°
2026-05-05 09:54 59.80302 30.26380 84 ft 3 kts 253°
2026-05-05 09:54 59.80309 30.26417 84 ft 3 kts 234°
2026-05-05 09:54 59.80321 30.26441 83 ft 2 kts 201°
2026-05-05 09:55 59.80324 30.26444 83 ft 0 kts 195°
2026-05-05 09:57 59.80298 30.26429 84 ft 9 kts 195°
2026-05-05 09:57 59.80211 30.26380 84 ft 17 kts 196°
2026-05-05 09:57 59.80083 30.26305 82 ft 23 kts 196°
2026-05-05 09:57 59.79950 30.26227 85 ft 17 kts 196°
2026-05-05 09:58 59.79814 30.26145 86 ft 24 kts 197°
2026-05-05 09:58 59.79693 30.26073 87 ft 14 kts 201°
2026-05-05 09:58 59.79589 30.25999 84 ft 13 kts 179°
2026-05-05 09:58 59.79542 30.26095 87 ft 14 kts 111°
2026-05-05 09:59 59.79502 30.26340 85 ft 23 kts 106°
2026-05-05 09:59 59.79448 30.26706 87 ft 32 kts 106°
2026-05-05 09:59 59.79385 30.27128 87 ft 17 kts 106°
2026-05-05 09:59 59.79348 30.27379 89 ft 24 kts 106°
2026-05-05 10:00 59.79293 30.27746 90 ft 31 kts 106°
2026-05-05 10:00 59.79239 30.28103 89 ft 14 kts 109°
2026-05-05 10:00 59.79176 30.28225 91 ft 17 kts 159°
2026-05-05 10:00 59.79067 30.28218 89 ft 16 kts 226°
2026-05-05 10:01 59.79067 30.28051 90 ft 19 kts 285°
2026-05-05 10:01 59.79077 30.27985 89 ft 1 kts 286°
2026-05-05 10:01 59.79093 30.27877 90 ft 33 kts 287°
2026-05-05 10:01 59.79230 30.26958 90 ft 104 kts 286°
2026-05-05 10:02 59.79496 30.25184 116 ft 159 kts 284°
2026-05-05 10:02 59.79806 30.23107 905 ft 154 kts 279°
2026-05-05 10:02 59.80094 30.21076 1767 ft 160 kts 278°
2026-05-05 10:02 59.80396 30.18779 2119 ft 184 kts 277°
2026-05-05 10:03 59.80746 30.16236 2721 ft 195 kts 279°
2026-05-05 10:03 59.81132 30.13541 3214 ft 215 kts 279°
2026-05-05 10:03 59.81555 30.10574 3677 ft 235 kts 281°
2026-05-05 10:03 59.82017 30.07412 4510 ft 239 kts 281°
2026-05-05 10:04 59.82484 30.04243 5452 ft 238 kts 281°
2026-05-05 10:04 59.82945 30.01089 6447 ft 237 kts 280°
2026-05-05 10:04 59.83256 29.97917 7448 ft 232 kts 269°
2026-05-05 10:04 59.83030 29.94769 8419 ft 232 kts 250°
2026-05-05 10:05 59.82421 29.91786 9388 ft 234 kts 246°
2026-05-05 10:05 59.81740 29.88801 10174 ft 243 kts 246°
2026-05-05 10:05 59.81020 29.85645 10559 ft 265 kts 246°
2026-05-05 10:05 59.80231 29.82160 10888 ft 287 kts 246°
2026-05-05 10:06 59.79398 29.78442 11463 ft 300 kts 246°
2026-05-05 10:06 59.78544 29.74615 12233 ft 306 kts 246°
2026-05-05 10:06 59.77677 29.70726 13077 ft 310 kts 246°
2026-05-05 10:06 59.76797 29.66791 13878 ft 314 kts 246°
2026-05-05 10:07 59.75907 29.62809 14583 ft 318 kts 246°
2026-05-05 10:07 59.75001 29.58773 15267 ft 322 kts 246°
2026-05-05 10:07 59.74083 29.54691 16005 ft 326 kts 246°
2026-05-05 10:07 59.73169 29.50629 16743 ft 329 kts 246°
2026-05-05 10:08 59.72233 29.46475 17499 ft 332 kts 246°
2026-05-05 10:08 59.71284 29.42280 18232 ft 335 kts 246°
2026-05-05 10:08 59.70325 29.38043 18930 ft 339 kts 246°
2026-05-05 10:08 59.69360 29.33785 19716 ft 340 kts 245°
2026-05-05 10:09 59.68384 29.29497 20409 ft 343 kts 245°
2026-05-05 10:09 59.67395 29.25161 21075 ft 347 kts 245°
2026-05-05 10:09 59.66395 29.20781 21728 ft 351 kts 245°
2026-05-05 10:09 59.65382 29.16350 22380 ft 355 kts 245°
2026-05-05 10:10 59.64370 29.11938 23010 ft 359 kts 245°
2026-05-05 10:10 59.63331 29.07417 23601 ft 363 kts 245°
2026-05-05 10:10 59.62214 29.02909 24166 ft 367 kts 241°
2026-05-05 10:10 59.60894 28.98572 24714 ft 371 kts 238°
2026-05-05 10:11 59.59455 28.94320 25196 ft 375 kts 236°
2026-05-05 10:11 59.57946 28.90057 25620 ft 381 kts 235°
2026-05-05 10:11 59.56408 28.85770 26175 ft 384 kts 235°
2026-05-05 10:11 59.54866 28.81456 26734 ft 387 kts 236°
2026-05-05 10:12 59.53318 28.77091 27270 ft 390 kts 236°
2026-05-05 10:12 59.51789 28.72747 27792 ft 393 kts 236°
2026-05-05 10:12 59.50233 28.68305 28291 ft 396 kts 236°
2026-05-05 10:12 59.48667 28.63829 28771 ft 399 kts 236°
2026-05-05 10:13 59.47090 28.59320 29282 ft 402 kts 236°
2026-05-05 10:13 59.45498 28.54775 29763 ft 405 kts 236°
2026-05-05 10:13 59.43895 28.50209 30157 ft 408 kts 236°
2026-05-05 10:13 59.42274 28.45606 30539 ft 411 kts 236°
2026-05-05 10:14 59.40641 28.40977 30896 ft 413 kts 236°
2026-05-05 10:14 59.38991 28.36309 31133 ft 419 kts 236°
2026-05-05 10:14 59.37342 28.31654 31462 ft 422 kts 236°
2026-05-05 10:14 59.35663 28.26926 31842 ft 424 kts 236°
2026-05-05 10:15 59.33972 28.22173 32172 ft 426 kts 236°
2026-05-05 10:15 59.32272 28.17409 32495 ft 428 kts 236°
2026-05-05 10:15 59.30561 28.12620 32889 ft 429 kts 236°
2026-05-05 10:15 59.28852 28.07844 33327 ft 428 kts 235°
2026-05-05 10:16 59.27143 28.03083 33773 ft 427 kts 235°
2026-05-05 10:16 59.25457 27.98399 34082 ft 427 kts 235°
2026-05-05 10:16 59.23745 27.93651 34317 ft 429 kts 235°
2026-05-05 10:16 59.22024 27.88886 34572 ft 430 kts 235°
2026-05-05 10:17 59.20296 27.84111 34745 ft 432 kts 235°
2026-05-05 10:17 59.18554 27.79307 34911 ft 435 kts 235°
2026-05-05 10:17 59.16805 27.74489 35194 ft 435 kts 235°
2026-05-05 10:17 59.15056 27.69681 35465 ft 435 kts 235°
2026-05-05 10:18 59.13300 27.64863 35708 ft 436 kts 235°
2026-05-05 10:18 59.11542 27.60045 35928 ft 437 kts 235°
2026-05-05 10:18 59.09779 27.55223 36165 ft 438 kts 234°
2026-05-05 10:18 59.08034 27.50460 36396 ft 439 kts 234°
2026-05-05 10:19 59.06261 27.45628 36618 ft 440 kts 234°
2026-05-05 10:19 59.04480 27.40788 36843 ft 440 kts 234°
2026-05-05 10:19 59.02696 27.35948 37064 ft 441 kts 234°
2026-05-05 10:19 59.00909 27.31109 37244 ft 442 kts 234°
2026-05-05 10:20 58.99111 27.26251 37389 ft 444 kts 234°
2026-05-05 10:20 58.97307 27.21388 37613 ft 444 kts 234°
2026-05-05 10:20 58.95501 27.16531 37821 ft 444 kts 234°
2026-05-05 10:20 58.93716 27.11737 38026 ft 445 kts 234°
2026-05-05 10:21 58.91905 27.06886 38232 ft 445 kts 234°
2026-05-05 10:21 58.90089 27.02030 38419 ft 446 kts 234°
2026-05-05 10:21 58.88269 26.97174 38559 ft 446 kts 234°
2026-05-05 10:21 58.86445 26.92318 38714 ft 447 kts 234°
2026-05-05 10:22 58.84618 26.87463 38870 ft 447 kts 234°
2026-05-05 10:22 58.82789 26.82614 39009 ft 447 kts 234°
2026-05-05 10:22 58.80954 26.77758 39139 ft 448 kts 234°
2026-05-05 10:22 58.79116 26.72905 39277 ft 448 kts 234°
2026-05-05 10:23 58.75428 26.63198 39308 ft 450 kts 234°
2026-05-05 10:23 58.73602 26.58404 39431 ft 450 kts 234°
2026-05-05 10:23 58.71751 26.53559 39578 ft 449 kts 233°
2026-05-05 10:24 58.69896 26.48711 39704 ft 450 kts 233°
2026-05-05 10:24 58.68041 26.43873 39748 ft 450 kts 233°
2026-05-05 10:24 58.64322 26.34204 39743 ft 450 kts 233°
2026-05-05 10:25 58.60619 26.24618 39748 ft 450 kts 233°
2026-05-05 10:25 58.56885 26.14992 39752 ft 450 kts 233°
2026-05-05 10:26 58.53141 26.05378 39757 ft 450 kts 233°
2026-05-05 10:26 58.50027 25.97413 39758 ft 450 kts 233°
2026-05-05 10:27 58.46272 25.87843 39766 ft 450 kts 233°
2026-05-05 10:27 58.41898 25.76743 39745 ft 450 kts 233°
2026-05-05 10:28 58.38132 25.67228 39770 ft 449 kts 233°
2026-05-05 10:28 58.34995 25.59336 39779 ft 449 kts 233°
2026-05-05 10:29 58.31217 25.49858 39770 ft 449 kts 233°
2026-05-05 10:29 58.26818 25.38872 39787 ft 449 kts 233°
2026-05-05 10:30 58.23641 25.30967 39783 ft 449 kts 233°
2026-05-05 10:30 58.19868 25.21616 39786 ft 449 kts 232°
2026-05-05 10:31 58.16067 25.12232 39786 ft 449 kts 232°
2026-05-05 10:31 58.11637 25.01343 39794 ft 449 kts 232°
2026-05-05 10:32 58.08436 24.93507 39814 ft 449 kts 232°
2026-05-05 10:32 58.04638 24.84241 39819 ft 449 kts 232°
2026-05-05 10:33 58.00808 24.74930 39809 ft 449 kts 232°
2026-05-05 10:33 57.96972 24.65646 39833 ft 449 kts 232°
2026-05-05 10:34 57.93130 24.56381 39833 ft 449 kts 232°
2026-05-05 10:34 57.89282 24.47139 39843 ft 449 kts 232°
2026-05-05 10:35 57.85452 24.37976 39843 ft 449 kts 232°
2026-05-05 10:35 57.81590 24.28770 39835 ft 449 kts 231°
2026-05-05 10:36 57.77720 24.19581 39854 ft 449 kts 231°
2026-05-05 10:36 57.73838 24.10401 39850 ft 449 kts 231°
2026-05-05 10:37 57.69981 24.01315 39850 ft 449 kts 231°
2026-05-05 10:37 57.66084 23.92168 39846 ft 449 kts 231°
2026-05-05 10:38 57.62185 23.83051 39823 ft 449 kts 231°
2026-05-05 10:38 57.58275 23.73943 39839 ft 450 kts 231°
2026-05-05 10:39 57.54351 23.64840 39843 ft 451 kts 231°
2026-05-05 10:39 57.50450 23.55823 39840 ft 451 kts 231°
2026-05-05 10:40 57.46513 23.46759 39837 ft 451 kts 231°
2026-05-05 10:40 57.42582 23.37741 39838 ft 451 kts 231°
2026-05-05 10:41 57.38632 23.28718 39843 ft 450 kts 231°
2026-05-05 10:41 57.34688 23.19738 39846 ft 449 kts 231°
2026-05-05 10:42 57.28792 23.06377 39841 ft 449 kts 230°
2026-05-05 10:43 57.24834 22.97450 39847 ft 449 kts 230°
2026-05-05 10:43 57.20872 22.88548 39836 ft 449 kts 230°
2026-05-05 10:44 57.16905 22.79667 39854 ft 448 kts 230°
2026-05-05 10:44 57.12937 22.70818 39857 ft 448 kts 230°
2026-05-05 10:45 57.08990 22.62046 39854 ft 448 kts 230°
2026-05-05 10:45 57.05011 22.53238 39854 ft 448 kts 230°
2026-05-05 10:46 57.01027 22.44451 39863 ft 448 kts 230°
2026-05-05 10:46 56.97038 22.35686 39876 ft 447 kts 230°
2026-05-05 10:47 56.93052 22.26958 39877 ft 446 kts 230°
2026-05-05 10:47 56.89058 22.18245 39868 ft 447 kts 230°
2026-05-05 10:48 56.85086 22.09611 39868 ft 447 kts 230°
2026-05-05 10:48 56.81076 22.00928 39876 ft 447 kts 230°
2026-05-05 10:49 56.77062 21.92267 39883 ft 447 kts 230°
2026-05-05 10:49 56.73043 21.83626 39887 ft 447 kts 230°
2026-05-05 10:50 56.69016 21.74999 39880 ft 447 kts 230°
2026-05-05 10:50 56.64984 21.66391 39887 ft 447 kts 230°
2026-05-05 10:51 56.60974 21.57864 39892 ft 447 kts 230°
2026-05-05 10:51 56.56928 21.49288 39908 ft 447 kts 229°
2026-05-05 10:52 56.52880 21.40739 39912 ft 447 kts 229°
2026-05-05 10:52 56.48821 21.32199 39914 ft 447 kts 229°
2026-05-05 10:53 56.44757 21.23678 39916 ft 447 kts 229°
2026-05-05 10:53 56.40688 21.15180 39911 ft 447 kts 229°
2026-05-05 10:54 56.36610 21.06688 39915 ft 448 kts 229°
2026-05-05 10:54 56.32546 20.98258 39915 ft 448 kts 229°
2026-05-05 10:55 56.28449 20.89791 39919 ft 448 kts 229°
2026-05-05 10:55 56.24347 20.81342 39928 ft 448 kts 229°
2026-05-05 10:56 56.20439 20.73322 39909 ft 449 kts 229°
2026-05-05 10:56 56.16360 20.64979 39922 ft 449 kts 229°
2026-05-05 10:57 56.12450 20.57008 39922 ft 449 kts 229°
2026-05-05 10:57 56.08338 20.48657 39923 ft 450 kts 229°
2026-05-05 10:58 56.03942 20.40689 39921 ft 450 kts 224°
2026-05-05 10:58 55.99366 20.33016 39924 ft 451 kts 224°
2026-05-05 10:59 55.94811 20.25315 39921 ft 451 kts 224°
2026-05-05 10:59 55.90282 20.17550 39925 ft 451 kts 224°
2026-05-05 11:00 55.85764 20.09782 39927 ft 451 kts 224°
2026-05-05 11:00 55.81279 20.02094 39930 ft 451 kts 224°
2026-05-05 11:01 55.76752 19.94365 39929 ft 451 kts 224°
2026-05-05 11:01 55.72220 19.86658 39933 ft 451 kts 224°
2026-05-05 11:02 55.67684 19.78971 39933 ft 451 kts 224°
2026-05-05 11:02 55.63141 19.71297 39932 ft 451 kts 224°
2026-05-05 11:03 55.58591 19.63638 39932 ft 451 kts 224°
2026-05-05 11:03 55.54038 19.55999 39932 ft 451 kts 224°
2026-05-05 11:04 55.49515 19.48435 39934 ft 450 kts 224°
2026-05-05 11:04 55.44965 19.40853 39933 ft 450 kts 224°
2026-05-05 11:05 55.40410 19.33286 39932 ft 450 kts 224°
2026-05-05 11:05 55.35854 19.25745 39933 ft 450 kts 224°
2026-05-05 11:06 55.31292 19.18216 39928 ft 450 kts 224°
2026-05-05 11:06 55.26763 19.10768 39936 ft 449 kts 223°
2026-05-05 11:07 55.22204 19.03297 39939 ft 449 kts 224°
2026-05-05 11:07 55.17639 18.95838 39935 ft 449 kts 223°
2026-05-05 11:08 55.13072 18.88401 39936 ft 449 kts 223°
2026-05-05 11:08 55.08498 18.80975 39933 ft 449 kts 223°
2026-05-05 11:09 55.03919 18.73568 39934 ft 449 kts 223°
2026-05-05 11:09 54.99370 18.66233 39936 ft 449 kts 223°
2026-05-05 11:10 54.94785 18.58863 39933 ft 449 kts 223°
2026-05-05 11:10 54.90196 18.51512 39932 ft 449 kts 223°
2026-05-05 11:11 54.85598 18.44169 39926 ft 449 kts 223°
2026-05-05 11:11 54.81022 18.36884 39936 ft 449 kts 223°
2026-05-05 11:12 54.76411 18.29569 39923 ft 449 kts 223°
2026-05-05 11:12 54.71796 18.22272 39930 ft 450 kts 223°
2026-05-05 11:13 54.67172 18.14982 39927 ft 450 kts 223°
2026-05-05 11:13 54.62547 18.07715 39924 ft 450 kts 222°
2026-05-05 11:14 54.57914 18.00458 39925 ft 450 kts 222°
2026-05-05 11:14 54.53302 17.93259 39921 ft 451 kts 222°
2026-05-05 11:15 54.48653 17.86023 39921 ft 451 kts 222°
2026-05-05 11:15 54.44000 17.78804 39921 ft 451 kts 222°
2026-05-05 11:16 54.39329 17.71582 39918 ft 452 kts 222°
2026-05-05 11:16 54.34655 17.64377 39915 ft 452 kts 222°
2026-05-05 11:17 54.29974 17.57184 39916 ft 452 kts 222°
2026-05-05 11:17 54.25321 17.50057 39915 ft 452 kts 222°
2026-05-05 11:18 54.20627 17.42891 39916 ft 452 kts 222°
2026-05-05 11:18 54.15929 17.35741 39914 ft 453 kts 222°
2026-05-05 11:19 54.11223 17.28601 39906 ft 453 kts 222°
2026-05-05 11:19 54.06514 17.21479 39911 ft 453 kts 222°
2026-05-05 11:20 54.01833 17.14422 39905 ft 453 kts 222°
2026-05-05 11:20 53.97110 17.07325 39911 ft 453 kts 222°
2026-05-05 11:21 53.92385 17.00247 39914 ft 453 kts 222°
2026-05-05 11:21 53.87659 16.93189 39914 ft 453 kts 222°
2026-05-05 11:22 53.82961 16.86195 39911 ft 453 kts 222°
2026-05-05 11:22 53.78226 16.79167 39907 ft 453 kts 222°
2026-05-05 11:23 53.73483 16.72150 39909 ft 453 kts 222°
2026-05-05 11:23 53.68737 16.65150 39910 ft 453 kts 221°
2026-05-05 11:24 53.63986 16.58164 39907 ft 453 kts 221°
2026-05-05 11:24 53.59261 16.51239 39904 ft 453 kts 221°
2026-05-05 11:25 53.54503 16.44287 39905 ft 453 kts 221°
2026-05-05 11:25 53.49744 16.37355 39910 ft 453 kts 221°
2026-05-05 11:26 53.44981 16.30436 39905 ft 453 kts 221°
2026-05-05 11:26 53.40208 16.23526 39905 ft 453 kts 221°
2026-05-05 11:26 53.37857 16.20131 39759 ft 452 kts 221°
2026-05-05 11:27 53.35474 16.16695 39688 ft 453 kts 221°
2026-05-05 11:27 53.33084 16.13254 39814 ft 453 kts 221°
2026-05-05 11:27 53.30694 16.09819 39911 ft 453 kts 221°
2026-05-05 11:28 53.25926 16.02980 39894 ft 451 kts 221°
2026-05-05 11:28 53.21162 15.96165 39895 ft 451 kts 221°
2026-05-05 11:29 53.16432 15.89420 39881 ft 451 kts 221°
2026-05-05 11:29 53.11664 15.82642 39893 ft 450 kts 221°
2026-05-05 11:30 53.06897 15.75885 39892 ft 450 kts 221°
2026-05-05 11:30 53.02127 15.69146 39891 ft 450 kts 221°
2026-05-05 11:31 52.97353 15.62419 39888 ft 450 kts 221°
2026-05-05 11:31 52.92603 15.55749 39890 ft 451 kts 221°
2026-05-05 11:32 52.87813 15.49042 39886 ft 451 kts 221°
2026-05-05 11:32 52.83019 15.42349 39887 ft 451 kts 221°
2026-05-05 11:33 52.78216 15.35663 39885 ft 451 kts 221°
2026-05-05 11:33 52.73448 15.29045 39875 ft 452 kts 220°
2026-05-05 11:34 52.68619 15.22362 39886 ft 454 kts 220°
2026-05-05 11:34 52.63782 15.15689 39882 ft 454 kts 220°
2026-05-05 11:35 52.58934 15.09021 39877 ft 454 kts 220°
2026-05-05 11:35 52.54080 15.02365 39878 ft 454 kts 220°
2026-05-05 11:36 52.49257 14.95770 39882 ft 454 kts 220°
2026-05-05 11:36 52.44397 14.89146 39882 ft 454 kts 220°
2026-05-05 11:37 52.39532 14.82533 39880 ft 454 kts 220°
2026-05-05 11:37 52.34660 14.75930 39879 ft 455 kts 220°
2026-05-05 11:38 52.29819 14.69388 39873 ft 455 kts 220°
2026-05-05 11:38 52.24930 14.62802 39876 ft 456 kts 220°
2026-05-05 11:39 52.20032 14.56223 39877 ft 456 kts 220°
2026-05-05 11:39 52.15132 14.49661 39876 ft 456 kts 220°
2026-05-05 11:40 52.10229 14.43114 39868 ft 456 kts 220°
2026-05-05 11:40 52.05347 14.36614 39885 ft 457 kts 220°
2026-05-05 11:41 52.00425 14.30079 39869 ft 457 kts 220°
2026-05-05 11:41 51.95498 14.23558 39868 ft 457 kts 220°
2026-05-05 11:42 51.90565 14.17047 39851 ft 457 kts 220°
2026-05-05 11:42 51.85663 14.10596 39871 ft 457 kts 220°
2026-05-05 11:43 51.80728 14.04121 39870 ft 457 kts 219°
2026-05-05 11:43 51.75791 13.97662 39870 ft 457 kts 219°
2026-05-05 11:44 51.70846 13.91211 39870 ft 457 kts 219°
2026-05-05 11:44 51.65901 13.84779 39869 ft 456 kts 219°
2026-05-05 11:45 51.60997 13.78419 39863 ft 456 kts 219°
2026-05-05 11:45 51.56063 13.72036 39864 ft 456 kts 219°
2026-05-05 11:46 51.51115 13.65655 39864 ft 456 kts 219°
2026-05-05 11:46 51.46173 13.59301 39861 ft 455 kts 219°
2026-05-05 11:47 51.41241 13.52976 39863 ft 454 kts 219°
2026-05-05 11:47 51.36343 13.46714 39866 ft 453 kts 219°
2026-05-05 11:48 51.28956 13.37302 39863 ft 452 kts 219°
2026-05-05 11:48 51.24032 13.31051 39862 ft 452 kts 219°
2026-05-05 11:49 51.19147 13.24866 39865 ft 451 kts 219°
2026-05-05 11:49 51.14227 13.18653 39862 ft 451 kts 219°
2026-05-05 11:50 51.09305 13.12457 39862 ft 451 kts 218°
2026-05-05 11:50 51.04380 13.06273 39858 ft 450 kts 218°
2026-05-05 11:51 50.99466 13.00122 39861 ft 449 kts 218°
2026-05-05 11:51 50.94554 12.93989 39860 ft 449 kts 218°
2026-05-05 11:52 50.89672 12.87910 39856 ft 449 kts 218°
2026-05-05 11:52 50.84755 12.81804 39858 ft 449 kts 218°
2026-05-05 11:53 50.79837 12.75714 39856 ft 449 kts 218°
2026-05-05 11:53 50.74914 12.69635 39851 ft 448 kts 218°
2026-05-05 11:54 50.69998 12.63581 39848 ft 448 kts 218°
2026-05-05 11:54 50.65113 12.57582 39838 ft 448 kts 218°
2026-05-05 11:55 50.60194 12.51557 39841 ft 448 kts 217°
2026-05-05 11:55 50.55305 12.45469 39842 ft 448 kts 220°
2026-05-05 11:56 50.50438 12.39355 39843 ft 448 kts 219°
2026-05-05 11:56 50.45533 12.33324 39837 ft 448 kts 219°
2026-05-05 11:57 50.40639 12.27388 39831 ft 448 kts 219°
2026-05-05 11:57 50.35782 12.21273 39829 ft 447 kts 224°
2026-05-05 11:58 50.31787 12.13859 39841 ft 446 kts 234°
2026-05-05 11:58 50.28233 12.05900 39852 ft 446 kts 236°
2026-05-05 11:59 50.24802 11.97887 39852 ft 446 kts 237°
2026-05-05 11:59 50.21584 11.89598 39862 ft 447 kts 238°
2026-05-05 12:00 50.18180 11.81502 39855 ft 446 kts 230°
2026-05-05 12:00 50.14081 11.74248 39852 ft 446 kts 227°
2026-05-05 12:01 50.09841 11.67202 39845 ft 446 kts 227°
2026-05-05 12:01 50.05591 11.60247 39831 ft 446 kts 226°
2026-05-05 12:02 50.01214 11.53393 39822 ft 447 kts 225°
2026-05-05 12:02 49.96807 11.46577 39821 ft 447 kts 225°
2026-05-05 12:03 49.92255 11.40004 39823 ft 447 kts 218°
2026-05-05 12:03 49.87296 11.34176 39815 ft 447 kts 217°
2026-05-05 12:04 49.82295 11.28527 39817 ft 448 kts 216°
2026-05-05 12:04 49.77298 11.22737 39811 ft 449 kts 221°
2026-05-05 12:05 49.72817 11.16021 39808 ft 449 kts 225°
2026-05-05 12:05 49.68473 11.09089 39805 ft 449 kts 226°
2026-05-05 12:06 49.64150 11.02133 39805 ft 450 kts 226°
2026-05-05 12:06 49.59830 10.95228 39802 ft 450 kts 225°
2026-05-05 12:07 49.55469 10.88300 39802 ft 450 kts 225°
2026-05-05 12:07 49.51098 10.81382 39804 ft 450 kts 225°
2026-05-05 12:08 49.46726 10.74474 39831 ft 451 kts 225°
2026-05-05 12:08 49.42365 10.67619 39832 ft 452 kts 225°
2026-05-05 12:09 49.37992 10.60677 39831 ft 452 kts 226°
2026-05-05 12:09 49.33667 10.53658 39832 ft 453 kts 225°
2026-05-05 12:10 49.29247 10.46787 39834 ft 452 kts 224°
2026-05-05 12:10 49.24769 10.40018 39838 ft 453 kts 224°
2026-05-05 12:11 49.20331 10.33254 39854 ft 454 kts 224°
2026-05-05 12:11 49.15899 10.26382 39847 ft 454 kts 225°
2026-05-05 12:12 49.11769 10.19089 39853 ft 455 kts 229°
2026-05-05 12:12 49.07786 10.11580 39830 ft 456 kts 230°
2026-05-05 12:13 49.03812 10.04032 39833 ft 457 kts 230°
2026-05-05 12:13 48.99827 9.96497 39833 ft 457 kts 230°
2026-05-05 12:14 48.95860 9.89031 39833 ft 457 kts 230°
2026-05-05 12:14 48.91858 9.81530 39835 ft 457 kts 230°
2026-05-05 12:15 48.87849 9.74035 39836 ft 457 kts 230°
2026-05-05 12:15 48.83835 9.66542 39840 ft 457 kts 230°
2026-05-05 12:16 48.79832 9.59108 39846 ft 459 kts 229°
2026-05-05 12:16 48.75788 9.51620 39843 ft 459 kts 229°
2026-05-05 12:17 48.71741 9.44143 39849 ft 459 kts 229°
2026-05-05 12:17 48.67687 9.36673 39828 ft 459 kts 229°
2026-05-05 12:18 48.63657 9.29261 39831 ft 459 kts 229°
2026-05-05 12:18 48.59658 9.21728 39830 ft 460 kts 232°
2026-05-05 12:19 48.55976 9.13831 39833 ft 460 kts 234°
2026-05-05 12:19 48.52342 9.05885 39840 ft 461 kts 234°
2026-05-05 12:20 48.48648 8.97983 39861 ft 461 kts 233°
2026-05-05 12:20 48.44944 8.90179 39864 ft 461 kts 233°
2026-05-05 12:21 48.41203 8.82343 39863 ft 461 kts 233°
2026-05-05 12:21 48.37460 8.74522 39869 ft 461 kts 233°
2026-05-05 12:22 48.33711 8.66706 39872 ft 461 kts 233°
2026-05-05 12:22 48.29985 8.58959 39881 ft 461 kts 233°
2026-05-05 12:23 48.26224 8.51162 39872 ft 461 kts 233°
2026-05-05 12:23 48.22457 8.43371 39874 ft 461 kts 233°
2026-05-05 12:24 48.18576 8.35716 39875 ft 461 kts 227°
2026-05-05 12:24 48.13744 8.29590 39871 ft 459 kts 211°
2026-05-05 12:25 48.08206 8.24821 39871 ft 459 kts 209°
2026-05-05 12:25 48.02567 8.20318 39876 ft 460 kts 208°
2026-05-05 12:26 47.96924 8.15828 39881 ft 460 kts 208°
2026-05-05 12:26 47.92242 8.12075 39879 ft 459 kts 208°
2026-05-05 12:27 47.85716 8.06827 39880 ft 458 kts 209°
2026-05-05 12:27 47.80114 8.02328 39880 ft 458 kts 208°
2026-05-05 12:28 47.75455 7.98597 39883 ft 458 kts 208°
2026-05-05 12:28 47.69848 7.94118 39876 ft 457 kts 208°
2026-05-05 12:29 47.64253 7.89661 39872 ft 456 kts 208°
2026-05-05 12:29 47.58665 7.85218 39867 ft 456 kts 208°
2026-05-05 12:30 47.53114 7.80816 39866 ft 456 kts 208°
2026-05-05 12:30 47.47533 7.76401 39868 ft 455 kts 208°
2026-05-05 12:31 47.41953 7.71997 39863 ft 454 kts 208°
2026-05-05 12:31 47.36370 7.67603 39869 ft 454 kts 208°
2026-05-05 12:32 47.31056 7.62708 39873 ft 454 kts 219°
2026-05-05 12:32 47.26671 7.56030 39875 ft 455 kts 229°
2026-05-05 12:33 47.22716 7.48758 39883 ft 455 kts 231°
2026-05-05 12:33 47.18814 7.41411 39883 ft 456 kts 231°
2026-05-05 12:34 47.14884 7.34071 39883 ft 457 kts 231°
2026-05-05 12:34 47.10954 7.26803 39887 ft 458 kts 230°
2026-05-05 12:35 47.06977 7.19493 39883 ft 458 kts 230°
2026-05-05 12:35 47.03003 7.12200 39903 ft 458 kts 230°
2026-05-05 12:36 46.99020 7.04915 39904 ft 458 kts 230°
2026-05-05 12:36 46.95056 6.97687 39910 ft 458 kts 230°
2026-05-05 12:37 46.91062 6.90418 39914 ft 459 kts 230°
2026-05-05 12:37 46.87058 6.83141 39910 ft 460 kts 230°
2026-05-05 12:38 46.83041 6.75875 39911 ft 460 kts 230°
2026-05-05 12:38 46.79021 6.68621 39908 ft 460 kts 230°
2026-05-05 12:39 46.74997 6.61378 39909 ft 459 kts 230°
2026-05-05 12:39 46.70981 6.54216 39913 ft 459 kts 229°
2026-05-05 12:40 46.66757 6.47244 39913 ft 459 kts 227°
2026-05-05 12:40 46.62473 6.40333 39908 ft 460 kts 227°
2026-05-05 12:41 46.58205 6.33397 39910 ft 460 kts 227°
2026-05-05 12:41 46.53952 6.26447 39915 ft 460 kts 227°
2026-05-05 12:42 46.49696 6.19495 39913 ft 460 kts 227°
2026-05-05 12:42 46.45467 6.12605 39919 ft 460 kts 227°
2026-05-05 12:43 46.41205 6.05680 39918 ft 460 kts 227°
2026-05-05 12:43 46.36940 5.98771 39919 ft 460 kts 227°
2026-05-05 12:44 46.32670 5.91871 39914 ft 460 kts 227°
2026-05-05 12:44 46.28718 5.84673 39914 ft 461 kts 233°
2026-05-05 12:45 46.25055 5.77077 39917 ft 461 kts 234°
2026-05-05 12:45 46.21442 5.69436 39913 ft 460 kts 234°
2026-05-05 12:46 46.17832 5.61822 39923 ft 459 kts 234°
2026-05-05 12:46 46.14218 5.54240 39909 ft 459 kts 234°
2026-05-05 12:47 46.10614 5.46704 39900 ft 460 kts 234°
2026-05-05 12:47 46.06975 5.39131 39910 ft 460 kts 234°
2026-05-05 12:48 46.03333 5.31569 39906 ft 459 kts 234°
2026-05-05 12:48 45.99689 5.24020 39902 ft 459 kts 234°
2026-05-05 12:49 45.96071 5.16543 39895 ft 459 kts 234°
2026-05-05 12:49 45.92422 5.09022 39905 ft 460 kts 234°
2026-05-05 12:50 45.88745 5.01464 39889 ft 462 kts 234°
2026-05-05 12:50 45.85061 4.93913 39876 ft 462 kts 234°
2026-05-05 12:51 45.81380 4.86385 39891 ft 460 kts 234°
2026-05-05 12:51 45.77722 4.78927 39891 ft 460 kts 234°
2026-05-05 12:52 45.74035 4.71428 39898 ft 460 kts 234°
2026-05-05 12:52 45.70342 4.63937 39916 ft 462 kts 234°
2026-05-05 12:53 45.66633 4.56434 39895 ft 461 kts 234°
2026-05-05 12:53 45.62952 4.49008 39890 ft 461 kts 234°
2026-05-05 12:54 45.57389 4.37820 39886 ft 460 kts 234°
2026-05-05 12:55 45.53675 4.30375 39882 ft 460 kts 234°
2026-05-05 12:55 45.49955 4.22936 39883 ft 461 kts 233°
2026-05-05 12:56 45.46231 4.15510 39885 ft 460 kts 233°
2026-05-05 12:56 45.42532 4.08153 39893 ft 460 kts 233°
2026-05-05 12:57 45.38808 4.00765 39900 ft 460 kts 233°
2026-05-05 12:57 45.35059 3.93398 39912 ft 460 kts 232°
2026-05-05 12:58 45.31206 3.86143 39902 ft 459 kts 232°
2026-05-05 12:58 45.27378 3.78947 39908 ft 461 kts 232°
2026-05-05 12:59 45.23516 3.71681 39905 ft 461 kts 232°
2026-05-05 12:59 45.19652 3.64422 39906 ft 461 kts 232°
2026-05-05 13:00 45.13843 3.53542 39907 ft 461 kts 232°
2026-05-05 13:01 45.06129 3.39154 39909 ft 460 kts 232°
2026-05-05 13:01 45.02256 3.31957 39918 ft 460 kts 232°
2026-05-05 13:02 44.98378 3.24769 39915 ft 460 kts 232°
2026-05-05 13:02 44.94495 3.17591 39924 ft 460 kts 232°
2026-05-05 13:03 44.90641 3.10484 39926 ft 458 kts 232°
2026-05-05 13:03 44.86763 3.03349 39944 ft 459 kts 232°
2026-05-05 13:04 44.82867 2.96200 39934 ft 461 kts 232°
2026-05-05 13:04 44.78953 2.89035 39948 ft 462 kts 232°
2026-05-05 13:05 44.75056 2.81921 39948 ft 462 kts 232°
2026-05-05 13:05 44.71135 2.74779 39951 ft 462 kts 232°
2026-05-05 13:06 44.67221 2.67667 39469 ft 457 kts 232°
2026-05-05 13:06 44.65275 2.64138 38773 ft 459 kts 231°
2026-05-05 13:06 44.63313 2.60586 37920 ft 461 kts 231°
2026-05-05 13:07 44.61349 2.57033 37176 ft 460 kts 231°
2026-05-05 13:07 44.59392 2.53498 36461 ft 458 kts 231°
2026-05-05 13:07 44.57438 2.49971 35733 ft 457 kts 231°
2026-05-05 13:07 44.55517 2.46509 34994 ft 455 kts 231°
2026-05-05 13:08 44.53573 2.43010 34192 ft 455 kts 231°
2026-05-05 13:08 44.51626 2.39509 33310 ft 455 kts 231°
2026-05-05 13:08 44.49686 2.36024 32376 ft 454 kts 231°
2026-05-05 13:08 44.47747 2.32547 31459 ft 452 kts 231°
2026-05-05 13:09 44.45813 2.29083 30536 ft 451 kts 231°
2026-05-05 13:09 44.43876 2.25618 29412 ft 454 kts 231°
2026-05-05 13:09 44.41931 2.22142 28564 ft 450 kts 231°
2026-05-05 13:09 44.40015 2.18721 27883 ft 444 kts 231°
2026-05-05 13:10 44.38151 2.15396 27240 ft 437 kts 231°
2026-05-05 13:10 44.36284 2.12071 26563 ft 432 kts 231°
2026-05-05 13:10 44.34438 2.08788 25893 ft 427 kts 231°
2026-05-05 13:10 44.32613 2.05544 25237 ft 423 kts 231°
2026-05-05 13:11 44.30804 2.02335 24570 ft 419 kts 231°
2026-05-05 13:11 44.29009 1.99151 23909 ft 416 kts 231°
2026-05-05 13:11 44.27225 1.95993 23199 ft 413 kts 230°
2026-05-05 13:11 44.25455 1.92862 22504 ft 408 kts 230°
2026-05-05 13:12 44.23710 1.89777 21857 ft 403 kts 230°
2026-05-05 13:12 44.21983 1.86728 21201 ft 398 kts 230°
2026-05-05 13:12 44.20299 1.83759 20560 ft 394 kts 230°
2026-05-05 13:12 44.18605 1.80776 19899 ft 390 kts 230°
2026-05-05 13:13 44.16927 1.77823 19255 ft 387 kts 230°
2026-05-05 13:13 44.15261 1.74896 18590 ft 385 kts 230°
2026-05-05 13:13 44.13604 1.71986 17885 ft 382 kts 230°
2026-05-05 13:13 44.11958 1.69099 17198 ft 379 kts 230°
2026-05-05 13:14 44.10330 1.66245 16527 ft 375 kts 230°
2026-05-05 13:14 44.08714 1.63416 15865 ft 371 kts 230°
2026-05-05 13:14 44.07114 1.60617 15197 ft 368 kts 231°
2026-05-05 13:14 44.05547 1.57880 14543 ft 365 kts 231°
2026-05-05 13:15 44.03972 1.55130 13879 ft 362 kts 231°
2026-05-05 13:15 44.02407 1.52400 13179 ft 359 kts 231°
2026-05-05 13:15 44.00858 1.49701 12485 ft 355 kts 231°
2026-05-05 13:15 43.99242 1.47144 11858 ft 349 kts 223°
2026-05-05 13:16 43.97285 1.45214 11271 ft 345 kts 207°
2026-05-05 13:16 43.95042 1.44209 11033 ft 332 kts 193°
2026-05-05 13:16 43.92833 1.43646 10921 ft 314 kts 191°
2026-05-05 13:16 43.90732 1.43160 10803 ft 298 kts 191°
2026-05-05 13:17 43.88738 1.42696 10701 ft 283 kts 191°
2026-05-05 13:17 43.86865 1.42257 10601 ft 270 kts 192°
2026-05-05 13:17 43.85052 1.41842 10480 ft 259 kts 190°
2026-05-05 13:17 43.83255 1.41804 10357 ft 261 kts 175°
2026-05-05 13:18 43.81527 1.42599 10243 ft 265 kts 154°
2026-05-05 13:18 43.79998 1.44044 9940 ft 266 kts 145°
2026-05-05 13:18 43.78519 1.45663 9649 ft 280 kts 144°
2026-05-05 13:18 43.76973 1.47364 9512 ft 286 kts 144°
2026-05-05 13:19 43.75432 1.49049 9252 ft 278 kts 144°
2026-05-05 13:19 43.73947 1.50667 9104 ft 266 kts 145°
2026-05-05 13:19 43.72539 1.52193 8948 ft 255 kts 145°
2026-05-05 13:19 43.71168 1.53670 8776 ft 246 kts 145°
2026-05-05 13:20 43.69816 1.55124 8400 ft 246 kts 145°
2026-05-05 13:20 43.68452 1.56588 7912 ft 251 kts 145°
2026-05-05 13:20 43.67058 1.58080 7411 ft 256 kts 145°
2026-05-05 13:20 43.65636 1.59604 6917 ft 261 kts 144°
2026-05-05 13:21 43.64190 1.61154 6429 ft 265 kts 144°
2026-05-05 13:21 43.62682 1.62631 5913 ft 266 kts 154°
2026-05-05 13:21 43.60927 1.63321 5392 ft 263 kts 179°
2026-05-05 13:21 43.59132 1.63169 5042 ft 259 kts 189°
2026-05-05 13:22 43.57390 1.62862 4958 ft 245 kts 190°
2026-05-05 13:22 43.55758 1.62572 4954 ft 229 kts 189°
2026-05-05 13:22 43.54214 1.62305 4884 ft 218 kts 189°
2026-05-05 13:22 43.52748 1.62053 4813 ft 207 kts 189°
2026-05-05 13:23 43.51356 1.61818 4730 ft 198 kts 189°
2026-05-05 13:23 43.50012 1.61503 4481 ft 195 kts 198°
2026-05-05 13:23 43.48825 1.60683 4269 ft 188 kts 220°
2026-05-05 13:23 43.48018 1.59352 4118 ft 176 kts 244°
2026-05-05 13:24 43.47625 1.57818 4029 ft 166 kts 257°
2026-05-05 13:24 43.47378 1.56300 4017 ft 164 kts 260°
2026-05-05 13:24 43.47159 1.54770 4002 ft 162 kts 263°
2026-05-05 13:24 43.47220 1.53292 4015 ft 152 kts 289°
2026-05-05 13:25 43.47769 1.52076 4008 ft 149 kts 311°
2026-05-05 13:25 43.48534 1.51141 3870 ft 146 kts 317°
2026-05-05 13:25 43.49329 1.50284 3654 ft 145 kts 318°
2026-05-05 13:25 43.50118 1.49461 3442 ft 138 kts 320°
2026-05-05 13:26 43.50864 1.48690 3247 ft 130 kts 319°
2026-05-05 13:26 43.51565 1.47959 3079 ft 128 kts 319°
2026-05-05 13:26 43.52276 1.47218 2898 ft 129 kts 319°
2026-05-05 13:26 43.52993 1.46473 2728 ft 129 kts 318°
2026-05-05 13:27 43.53704 1.45733 2552 ft 128 kts 319°
2026-05-05 13:27 43.54417 1.44991 2383 ft 128 kts 318°
2026-05-05 13:27 43.55126 1.44252 2193 ft 128 kts 319°
2026-05-05 13:27 43.55833 1.43515 2028 ft 126 kts 319°
2026-05-05 13:28 43.56538 1.42783 1861 ft 128 kts 319°
2026-05-05 13:28 43.57245 1.42052 1703 ft 126 kts 319°
2026-05-05 13:28 43.57936 1.41333 1496 ft 127 kts 319°
2026-05-05 13:28 43.58636 1.40605 1339 ft 126 kts 318°
2026-05-05 13:29 43.59330 1.39861 1180 ft 127 kts 318°
2026-05-05 13:29 43.60039 1.39138 1040 ft 127 kts 319°
2026-05-05 13:29 43.60739 1.38398 877 ft 127 kts 316°
2026-05-05 13:29 43.61456 1.37661 726 ft 130 kts 320°
2026-05-05 13:30 43.62175 1.36919 530 ft 128 kts 319°
2026-05-05 13:30 43.62849 1.36217 489 ft 102 kts 323°
2026-05-05 13:30 43.63085 1.35973 491 ft 0 kts 323°
2026-05-05 13:30 43.63094 1.35964 489 ft 20 kts 323°
2026-05-05 13:31 43.63300 1.35749 501 ft 39 kts 323°
2026-05-05 13:31 43.63499 1.35541 500 ft 21 kts 319°
2026-05-05 13:31 43.63508 1.35371 500 ft 19 kts 238°
2026-05-05 13:31 43.63410 1.35329 501 ft 15 kts 154°
2026-05-05 13:32 43.63331 1.35405 501 ft 14 kts 143°
2026-05-05 13:32 43.63222 1.35518 501 ft 25 kts 142°
2026-05-05 13:32 43.63054 1.35693 501 ft 35 kts 142°
2026-05-05 13:32 43.62840 1.35917 500 ft 41 kts 143°
2026-05-05 13:33 43.62661 1.36086 500 ft 22 kts 169°
2026-05-05 13:33 43.62590 1.36040 501 ft 6 kts 232°
2026-05-05 13:33 43.62589 1.36037 501 ft 0 kts 232°
2026-05-05 13:33 43.62562 1.35989 501 ft 5 kts 232°
2026-05-05 13:34 43.62557 1.35929 501 ft 5 kts 295°
2026-05-05 13:34 43.62575 1.35901 501 ft 1 kts 316°
2026-05-05 13:34 43.62581 1.35894 501 ft 0 kts 319°